Location: Carrer del Canonge
(41.4901°N, 2.2931°E)
Time: 14:40:57
(UTC+00:00)

ISS - Pass Details

Date: 29 November 2020
Orbit: 418 x 419 km, 51.6° (Epoch: 18 January)

Event Time Altitude Azimuth Distance (km) Brightness Sun altitude
Rises 17:50:40 0° 299° (WNW) 2,368 0.8 -16.2°
Reaches altitude 10° 17:53:29 10° 325° (NW) 1,503 -0.7 -16.7°
Maximum altitude 17:55:27 15° 1° (N) 1,256 -1.5 -17.0°
Enters shadow 17:55:38 15° 5° (N) 1,258 -1.5 -17.1°
